Time,TemperatureF,DewpointF,PressureIn,WindDirection,WindDirectionDegrees,WindSpeedMPH,WindSpeedGustMPH,Humidity,HourlyPrecipIn,Conditions,Clouds,dailyrainin,SoftwareType,DateUTC
2013-03-18 00:00:00,29.0,-99.9,-100.00,West,266,16.0,21.0,-999,-99.99,,,-99.99,,2013-03-18 06:00:00,
2013-03-18 00:32:00,29.0,-99.9,-100.00,West,266,16.0,21.0,-999,-99.99,,,-99.99,,2013-03-18 06:32:00,
2013-03-18 00:42:00,29.0,-99.9,-100.00,West,266,16.0,21.0,-999,-99.99,,,-99.99,,2013-03-18 06:42:00,
2013-03-18 00:53:00,29.0,-99.9,-100.00,West,266,16.0,21.0,-999,-99.99,,,-99.99,,2013-03-18 06:53:00,
2013-03-18 01:00:00,28.0,-99.9,-100.00,West,261,10.0,12.0,-999,-99.99,,,-99.99,,2013-03-18 07:00:00,
2013-03-18 01:33:00,28.0,-99.9,-100.00,West,261,10.0,12.0,-999,-99.99,,,-99.99,,2013-03-18 07:33:00,
2013-03-18 01:43:00,28.0,-99.9,-100.00,West,261,10.0,12.0,-999,-99.99,,,-99.99,,2013-03-18 07:43:00,
2013-03-18 01:53:00,28.0,-99.9,-100.00,West,261,10.0,12.0,-999,-99.99,,,-99.99,,2013-03-18 07:53:00,
2013-03-18 02:00:00,27.0,-99.9,-100.00,West,268,7.0,10.0,-999,-99.99,,,-99.99,,2013-03-18 08:00:00,
2013-03-18 02:32:00,27.0,-99.9,-100.00,West,268,7.0,10.0,-999,-99.99,,,-99.99,,2013-03-18 08:32:00,
2013-03-18 02:43:00,27.0,-99.9,-100.00,West,268,7.0,10.0,-999,-99.99,,,-99.99,,2013-03-18 08:43:00,
2013-03-18 02:53:00,27.0,-99.9,-100.00,West,268,7.0,10.0,-999,-99.99,,,-99.99,,2013-03-18 08:53:00,
2013-03-18 03:00:00,28.0,-99.9,-100.00,WNW,282,15.0,18.0,-999,-99.99,,,-99.99,,2013-03-18 09:00:00,
2013-03-18 03:33:00,28.0,-99.9,-100.00,WNW,282,15.0,18.0,-999,-99.99,,,-99.99,,2013-03-18 09:33:00,
2013-03-18 03:43:00,28.0,-99.9,-100.00,WNW,282,15.0,18.0,-999,-99.99,,,-99.99,,2013-03-18 09:43:00,
2013-03-18 03:53:00,28.0,-99.9,-100.00,WNW,282,15.0,18.0,-999,-99.99,,,-99.99,,2013-03-18 09:53:00,
2013-03-18 04:00:00,26.0,-99.9,-100.00,West,268,12.0,14.0,-999,-99.99,,,-99.99,,2013-03-18 10:00:00,
2013-03-18 04:33:00,26.0,-99.9,-100.00,West,268,12.0,14.0,-999,-99.99,,,-99.99,,2013-03-18 10:33:00,
2013-03-18 04:42:00,26.0,-99.9,-100.00,West,268,12.0,14.0,-999,-99.99,,,-99.99,,2013-03-18 10:42:00,
2013-03-18 04:53:00,26.0,-99.9,-100.00,West,268,12.0,14.0,-999,-99.99,,,-99.99,,2013-03-18 10:53:00,
2013-03-18 05:00:00,28.0,-99.9,-100.00,West,281,16.0,20.0,-999,-99.99,,,-99.99,,2013-03-18 11:00:00,
2013-03-18 05:32:00,28.0,-99.9,-100.00,West,281,16.0,20.0,-999,-99.99,,,-99.99,,2013-03-18 11:32:00,
2013-03-18 05:43:00,28.0,-99.9,-100.00,West,281,16.0,20.0,-999,-99.99,,,-99.99,,2013-03-18 11:43:00,
2013-03-18 05:53:00,28.0,-99.9,-100.00,West,281,16.0,20.0,-999,-99.99,,,-99.99,,2013-03-18 11:53:00,
2013-03-18 06:00:00,27.0,-99.9,-100.00,West,271,10.0,12.0,-999,-99.99,,,-99.99,,2013-03-18 12:00:00,
2013-03-18 06:33:00,27.0,-99.9,-100.00,West,271,10.0,12.0,-999,-99.99,,,-99.99,,2013-03-18 12:33:00,
2013-03-18 06:43:00,27.0,-99.9,-100.00,West,271,10.0,12.0,-999,-99.99,,,-99.99,,2013-03-18 12:43:00,
2013-03-18 06:52:00,27.0,-99.9,-100.00,West,271,10.0,12.0,-999,-99.99,,,-99.99,,2013-03-18 12:52:00,
2013-03-18 07:00:00,25.0,-99.9,-100.00,WNW,294,9.0,12.0,-999,-99.99,,,-99.99,,2013-03-18 13:00:00,
2013-03-18 07:33:00,25.0,-99.9,-100.00,WNW,294,9.0,12.0,-999,-99.99,,,-99.99,,2013-03-18 13:33:00,
2013-03-18 07:43:00,25.0,-99.9,-100.00,WNW,294,9.0,12.0,-999,-99.99,,,-99.99,,2013-03-18 13:43:00,
2013-03-18 07:52:00,25.0,-99.9,-100.00,WNW,294,9.0,12.0,-999,-99.99,,,-99.99,,2013-03-18 13:52:00,
2013-03-18 08:00:00,28.0,-99.9,-100.00,NW,315,9.0,13.0,-999,-99.99,,,-99.99,,2013-03-18 14:00:00,
2013-03-18 08:32:00,28.0,-99.9,-100.00,NW,315,9.0,13.0,-999,-99.99,,,-99.99,,2013-03-18 14:32:00,
2013-03-18 08:42:00,28.0,-99.9,-100.00,NW,315,9.0,13.0,-999,-99.99,,,-99.99,,2013-03-18 14:42:00,
2013-03-18 08:52:00,28.0,-99.9,-100.00,NW,315,9.0,13.0,-999,-99.99,,,-99.99,,2013-03-18 14:52:00,
2013-03-18 09:00:00,31.0,-99.9,-100.00,West,268,15.0,20.0,-999,-99.99,,,-99.99,,2013-03-18 15:00:00,
2013-03-18 09:33:00,31.0,-99.9,-100.00,West,268,15.0,20.0,-999,-99.99,,,-99.99,,2013-03-18 15:33:00,
2013-03-18 10:00:00,32.0,-99.9,-100.00,West,260,19.0,30.0,-999,-99.99,,,-99.99,,2013-03-18 16:00:00,
2013-03-18 10:33:00,32.0,-99.9,-100.00,West,260,19.0,30.0,-999,-99.99,,,-99.99,,2013-03-18 16:33:00,
2013-03-18 10:42:00,32.0,-99.9,-100.00,West,260,19.0,30.0,-999,-99.99,,,-99.99,,2013-03-18 16:42:00,
2013-03-18 10:53:00,32.0,-99.9,-100.00,West,260,19.0,30.0,-999,-99.99,,,-99.99,,2013-03-18 16:53:00,
2013-03-18 11:00:00,36.0,-99.9,-100.00,NW,304,10.0,16.0,-999,-99.99,,,-99.99,,2013-03-18 17:00:00,
2013-03-18 11:33:00,36.0,-99.9,-100.00,NW,304,10.0,16.0,-999,-99.99,,,-99.99,,2013-03-18 17:33:00,
2013-03-18 11:43:00,36.0,-99.9,-100.00,NW,304,10.0,16.0,-999,-99.99,,,-99.99,,2013-03-18 17:43:00,
2013-03-18 11:52:00,36.0,-99.9,-100.00,NW,304,10.0,16.0,-999,-99.99,,,-99.99,,2013-03-18 17:52:00,
2013-03-18 12:00:00,36.0,-99.9,-100.00,NW,304,26.0,32.0,-999,-99.99,,,-99.99,,2013-03-18 18:00:00,
2013-03-18 12:32:00,36.0,-99.9,-100.00,NW,304,26.0,32.0,-999,-99.99,,,-99.99,,2013-03-18 18:32:00,
2013-03-18 12:42:00,36.0,-99.9,-100.00,NW,304,26.0,32.0,-999,-99.99,,,-99.99,,2013-03-18 18:42:00,
2013-03-18 12:52:00,36.0,-99.9,-100.00,NW,304,26.0,32.0,-999,-99.99,,,-99.99,,2013-03-18 18:52:00,
2013-03-18 13:00:00,37.0,-99.9,-100.00,West,280,21.0,27.0,-999,-99.99,,,-99.99,,2013-03-18 19:00:00,
2013-03-18 13:33:00,37.0,-99.9,-100.00,West,280,21.0,27.0,-999,-99.99,,,-99.99,,2013-03-18 19:33:00,
2013-03-18 13:42:00,37.0,-99.9,-100.00,West,280,21.0,27.0,-999,-99.99,,,-99.99,,2013-03-18 19:42:00,
2013-03-18 13:52:00,37.0,-99.9,-100.00,West,280,21.0,27.0,-999,-99.99,,,-99.99,,2013-03-18 19:52:00,
2013-03-18 14:00:00,37.0,-99.9,-100.00,WNW,296,4.0,15.0,-999,-99.99,,,-99.99,,2013-03-18 20:00:00,
2013-03-18 14:33:00,37.0,-99.9,-100.00,WNW,296,4.0,15.0,-999,-99.99,,,-99.99,,2013-03-18 20:33:00,
2013-03-18 14:43:00,37.0,-99.9,-100.00,WNW,296,4.0,15.0,-999,-99.99,,,-99.99,,2013-03-18 20:43:00,
2013-03-18 14:53:00,37.0,-99.9,-100.00,WNW,296,4.0,15.0,-999,-99.99,,,-99.99,,2013-03-18 20:53:00,
2013-03-18 15:00:00,37.0,-99.9,-100.00,NW,308,16.0,23.0,-999,-99.99,,,-99.99,,2013-03-18 21:00:00,
2013-03-18 15:33:00,37.0,-99.9,-100.00,NW,308,16.0,23.0,-999,-99.99,,,-99.99,,2013-03-18 21:33:00,
2013-03-18 15:43:00,37.0,-99.9,-100.00,NW,308,16.0,23.0,-999,-99.99,,,-99.99,,2013-03-18 21:43:00,
2013-03-18 15:53:00,37.0,-99.9,-100.00,NW,308,16.0,23.0,-999,-99.99,,,-99.99,,2013-03-18 21:53:00,
2013-03-18 16:00:00,38.0,-99.9,-100.00,WNW,285,18.0,24.0,-999,-99.99,,,-99.99,,2013-03-18 22:00:00,
2013-03-18 16:33:00,38.0,-99.9,-100.00,WNW,285,18.0,24.0,-999,-99.99,,,-99.99,,2013-03-18 22:33:00,
2013-03-18 16:43:00,38.0,-99.9,-100.00,WNW,285,18.0,24.0,-999,-99.99,,,-99.99,,2013-03-18 22:43:00,
2013-03-18 16:53:00,38.0,-99.9,-100.00,WNW,285,18.0,24.0,-999,-99.99,,,-99.99,,2013-03-18 22:53:00,
2013-03-18 17:00:00,34.0,-99.9,-100.00,West,260,17.0,21.0,-999,-99.99,,,-99.99,,2013-03-18 23:00:00,
2013-03-18 17:33:00,34.0,-99.9,-100.00,West,260,17.0,21.0,-999,-99.99,,,-99.99,,2013-03-18 23:33:00,
2013-03-18 17:43:00,34.0,-99.9,-100.00,West,260,17.0,21.0,-999,-99.99,,,-99.99,,2013-03-18 23:43:00,
2013-03-18 17:53:00,34.0,-99.9,-100.00,West,260,17.0,21.0,-999,-99.99,,,-99.99,,2013-03-18 23:53:00,
2013-03-18 18:00:00,34.0,-99.9,-100.00,WNW,295,5.0,6.0,-999,-99.99,,,-99.99,,2013-03-19 00:00:00,
2013-03-18 18:33:00,34.0,-99.9,-100.00,WNW,295,5.0,6.0,-999,-99.99,,,-99.99,,2013-03-19 00:33:00,
2013-03-18 18:43:00,34.0,-99.9,-100.00,WNW,295,5.0,6.0,-999,-99.99,,,-99.99,,2013-03-19 00:43:00,
2013-03-18 18:53:00,34.0,-99.9,-100.00,WNW,295,5.0,6.0,-999,-99.99,,,-99.99,,2013-03-19 00:53:00,
2013-03-18 19:00:00,34.0,-99.9,-100.00,North,349,5.0,7.0,-999,-99.99,,,-99.99,,2013-03-19 01:00:00,
2013-03-18 19:33:00,34.0,-99.9,-100.00,North,349,5.0,7.0,-999,-99.99,,,-99.99,,2013-03-19 01:33:00,
2013-03-18 19:43:00,34.0,-99.9,-100.00,North,349,5.0,7.0,-999,-99.99,,,-99.99,,2013-03-19 01:43:00,
2013-03-18 19:53:00,34.0,-99.9,-100.00,North,349,5.0,7.0,-999,-99.99,,,-99.99,,2013-03-19 01:53:00,
2013-03-18 20:00:00,32.0,-99.9,-100.00,NNE,18,6.0,7.0,-999,-99.99,,,-99.99,,2013-03-19 02:00:00,
2013-03-18 20:33:00,32.0,-99.9,-100.00,NNE,18,6.0,7.0,-999,-99.99,,,-99.99,,2013-03-19 02:33:00,
2013-03-18 20:43:00,32.0,-99.9,-100.00,NNE,18,6.0,7.0,-999,-99.99,,,-99.99,,2013-03-19 02:43:00,
2013-03-18 20:53:00,32.0,-99.9,-100.00,NNE,18,6.0,7.0,-999,-99.99,,,-99.99,,2013-03-19 02:53:00,
2013-03-18 21:00:00,29.0,-99.9,-100.00,ENE,69,8.0,11.0,-999,-99.99,,,-99.99,,2013-03-19 03:00:00,
2013-03-18 21:33:00,29.0,-99.9,-100.00,ENE,69,8.0,11.0,-999,-99.99,,,-99.99,,2013-03-19 03:33:00,
2013-03-18 21:43:00,29.0,-99.9,-100.00,ENE,69,8.0,11.0,-999,-99.99,,,-99.99,,2013-03-19 03:43:00,
2013-03-18 21:54:00,29.0,-99.9,-100.00,ENE,69,8.0,11.0,-999,-99.99,,,-99.99,,2013-03-19 03:54:00,
2013-03-18 22:00:00,28.0,-99.9,-100.00,South,186,5.0,7.0,-999,-99.99,,,-99.99,,2013-03-19 04:00:00,
2013-03-18 22:34:00,28.0,-99.9,-100.00,South,186,5.0,7.0,-999,-99.99,,,-99.99,,2013-03-19 04:34:00,
2013-03-18 22:43:00,28.0,-99.9,-100.00,South,186,5.0,7.0,-999,-99.99,,,-99.99,,2013-03-19 04:43:00,
2013-03-18 22:53:00,28.0,-99.9,-100.00,South,186,5.0,7.0,-999,-99.99,,,-99.99,,2013-03-19 04:53:00,
2013-03-18 23:00:00,26.0,-99.9,-100.00,SSW,205,7.0,9.0,-999,-99.99,,,-99.99,,2013-03-19 05:00:00,
2013-03-18 23:33:00,26.0,-99.9,-100.00,SSW,205,7.0,9.0,-999,-99.99,,,-99.99,,2013-03-19 05:33:00,
2013-03-18 23:43:00,26.0,-99.9,-100.00,SSW,205,7.0,9.0,-999,-99.99,,,-99.99,,2013-03-19 05:43:00,
2013-03-18 23:52:00,26.0,-99.9,-100.00,SSW,205,7.0,9.0,-999,-99.99,,,-99.99,,2013-03-19 05:52:00,